RH
13 14 14 13 22 22 24 25 25 24 25 32 40 35 33 38 40 41 42 43 47 43 48 50 48 45 48 53 57 63 70 70 72 74 74 78 83 84 82 82 80 78 71 46
12 12 11 11 17 20 22 23 23 22 22 30 35 33 29 33 34 35 39 44 45 42 43 49 51 49 43 41 45 54 60 68 71 74 78 82 85 81 82 79 78 76 69 49
11 10 9 11 15 19 21 22 22 20 20 25 28 30 26 25 28 32 36 40 44 43 37 42 49 50 50 44 37 44 49 54 61 72 78 83 80 81 84 80 76 79 75 58
12 10 12 13 15 17 20 19 20 18 19 20 21 27 22 19 20 28 31 36 39 42 36 38 41 48 52 52 46 39 45 49 51 61 72 79 74 81 86 84 82 79 72 66
14 12 13 15 15 16 17 15 17 17 17 18 21 22 20 19 24 27 29 32 35 38 34 33 35 40 51 53 52 43 39 45 47 51 61 73 75 75 81 73 76 73 71 65
15 16 15 15 15 16 16 16 16 18 18 19 19 19 23 21 24 28 28 29 33 35 32 27 35 40 47 50 52 52 45 39 44 47 53 67 72 73 74 70 70 74 77 78
18 15 15 16 18 18 20 21 22 19 20 21 19 20 22 21 24 27 29 29 30 32 35 33 32 35 40 47 48 51 53 44 40 45 48 55 65 70 71 73 69 69 69 76
22 22 18 19 21 21 22 22 24 23 21 19 21 21 21 22 22 26 25 26 29 31 34 35 32 33 37 44 48 51 52 47 39 41 43 49 55 61 66 68 72 71 64 59
27 25 24 23 24 23 24 24 22 22 22 21 21 22 21 22 22 26 27 27 27 29 31 32 35 33 34 39 44 47 51 53 45 36 39 42 51 58 61 64 66 68 67 59
31 29 26 29 28 28 30 27 27 25 23 24 24 26 29 27 26 26 27 27 26 28 31 31 34 32 31 34 38 48 52 53 52 42 35 38 40 52 58 61 64 67 67 64
30 30 30 31 30 28 29 28 30 28 27 28 29 29 26 29 28 26 28 29 26 27 28 28 29 33 34 34 35 42 52 55 54 51 38 32 36 40 52 57 61 62 64 61
34 34 33 33 34 33 30 30 33 35 31 29 28 30 27 31 30 29 30 28 25 24 24 26 27 35 36 34 35 36 49 56 57 54 45 33 31 36 41 50 53 54 54 51
34 35 36 33 35 36 36 35 34 32 35 37 35 30 31 32 30 30 30 30 28 26 28 27 32 33 36 36 36 34 45 51 56 57 49 37 28 29 34 39 45 48 48 48
40 39 37 35 31 34 37 36 36 36 37 37 33 28 32 33 32 31 31 32 31 29 30 29 31 33 34 36 33 32 41 49 52 57 48 42 38 32 32 33 38 42 45 46
47 46 44 40 36 32 33 36 37 38 37 35 31 31 33 35 37 35 34 33 31 34 34 33 31 33 33 32 28 31 39 46 52 57 52 51 49 41 39 40 38 39 41 40
48 51 51 47 44 42 39 34 35 36 37 37 36 33 34 39 37 39 37 35 33 30 31 35 34 33 33 25 27 31 40 44 46 53 53 53 51 46 48 44 44 47 47 48
45 49 55 55 52 48 46 42 39 36 36 35 40 39 37 44 45 45 44 41 39 38 35 36 34 33 31 31 32 33 39 43 44 48 54 53 51 49 50 50 50 51 53 53
52 56 59 56 53 58 51 48 45 45 47 44 43 42 45 47 48 49 49 50 47 44 40 37 36 36 34 35 35 36 40 46 48 50 54 54 53 53 53 51 49 51 53 55
50 53 57 61 63 53 48 53 52 48 49 49 51 52 52 52 51 53 55 57 54 52 50 45 42 43 44 43 40 40 41 46 50 50 53 58 55 53 54 53 53 54 52 54
47 50 53 63 65 64 51 56 55 52 52 51 51 48 50 53 61 62 64 63 61 61 60 56 54 53 52 52 47 45 43 45 48 55 58 60 59 58 57 58 58 59 57 58
56 57 57 61 61 57 56 52 57 65 60 63 60 57 56 56 56 56 61 66 67 68 64 61 61 61 61 55 52 52 48 44 50 62 63 61 62 60 59 59 56 57 57 59
58 65 68 67 66 66 60 60 58 60 61 61 65 71 71 67 62 62 65 66 65 64 69 72 69 63 62 62 60 60 54 52 51 56 61 61 62 60 58 58 57 59 61 63
65 61 67 69 74 69 64 63 65 67 64 63 61 64 67 66 63 62 68 68 69 71 71 71 68 64 65 62 65 66 64 59 58 54 61 66 63 61 59 58 58 62 63 58
61 63 64 62 65 69 65 64 66 67 71 70 69 67 65 65 64 68 69 71 74 73 72 70 74 68 63 59 60 63 60 56 60 64 60 71 69 68 65 64 63 64 62 62
47 47 56 62 64 61 61 61 61 64 67 68 66 66 67 68 65 67 65 71 74 76 72 64 64 63 64 59 60 58 58 59 55 63 69 69 80 84 80 73 70 64 60 60
46 48 51 53 51 57 58 60 59 58 60 65 65 63 61 62 61 60 60 61 65 70 72 68 65 62 58 56 51 51 56 57 58 54 54 63 89 86 86 81 73 66 63 53